Location: Newark
(50.1751°N, 5.6239°W)
Time: 23:29:28
(UTC+00:00)

ISS - Pass Details

Date: 25 September 2021
Orbit: 417 x 423 km, 51.6° (Epoch: 18 October)

Event Time Altitude Azimuth Distance (km) Brightness Sun altitude
Rises 19:41:34 0° 274° (W) 2,364 1.7 -14.7°
Reaches altitude 10° 19:43:40 10° 277° (W) 1,501 0.4 -15.1°
Maximum altitude 19:47:01 66° 1° (N) 464 -3.6 -15.6°
Enters shadow 19:48:21 33° 73° (ENE) 731 -3.0 -15.8°
